Location: Tabriz
(38.0800°N, 46.2919°E)
Time: 04:09:58
(UTC+04:30)

ISS - Visible Passes

Search period start: 23 July 2019 00:00
Search period end: 02 August 2019 00:00
Orbit: 409 x 418 km, 51.6° (Epoch: 23 July)

Date Brightness Start Highest point End Pass type
(mag) Time Alt. Az. Time Alt. Az. Time Alt. Az.
23 Jul -0.7 21:33:42 10° WNW 21:35:43 15° NNW 21:37:45 10° NNE visible
24 Jul -0.3 00:49:49 10° NNW 00:50:22 12° N 00:50:22 12° N visible
25 Jul -0.5 00:01:12 10° N 00:01:56 11° NNE 00:02:26 10° NNE visible
26 Jul -0.2 00:47:12 10° NNW 00:47:21 11° NNW 00:47:21 11° NNW visible
26 Jul -0.8 23:58:11 10° NNW 23:59:30 15° N 23:59:30 15° N visible
27 Jul -0.9 23:09:18 10° N 23:10:49 12° NNE 23:11:41 12° NE visible
28 Jul -0.8 23:55:39 10° NNW 23:56:41 17° NNW 23:56:41 17° NNW visible
29 Jul -1.6 23:06:32 10° NNW 23:08:56 21° NNE 23:08:56 21° NNE visible
30 Jul -1.2 22:17:30 10° NNW 22:19:34 15° NNE 22:21:11 12° NE visible
30 Jul -0.7 23:53:20 10° NW 23:54:00 15° NW 23:54:00 15° NW visible
31 Jul -1.0 21:28:37 10° N 21:29:54 12° NNE 21:31:12 10° NE visible
31 Jul -2.2 23:04:02 10° NW 23:06:18 34° NNW 23:06:18 34° NNW visible
01 Aug -2.3 22:14:49 10° NNW 22:17:45 28° NNE 22:18:37 24° ENE visible
